Regional Weather Roundup
Issued by NWS

Home | Current Version | Previous Version | Graphics & Text | Print | Product List | Glossary On
Versions: 1 2 3 4 5 6 7 8 9 10 11 12 13 14 15 16 17 18 19 20 21 22 23 24 25 26 27 28 29 30 31 32 33 34 35 36 37 38 39 40 41 42 43 44 45 46 47 48 49 50
671
ASUS44 KLIX 020101
RWRLA
LOUISIANA WEATHER ROUNDUP
NATIONAL WEATHER SERVICE NEW ORLEANS LA
700 PM CST SUN MAR 01 2015

NOTE: "FAIR" INDICATES FEW OR NO CLOUDS BELOW 12,000 FEET WITH NO
      SIGNIFICANT WEATHER AND/OR OBSTRUCTIONS TO VISIBILITY.
      SKY/WX - SKY CONDITION AND SIGNIFICANT WEATHER.
      TMP - AIR TEMPERATURE.    DP   - DEWPOINT TEMPERATURE.
      RH  - RELATIVE HUMIDITY.  PRES - PRESSURE.
      HX  - HEAT INDEX.         WCI  - WIND CHILL INDEX.

*  THESE STATIONS ARE NOT NWS OR FAA STATIONS AND ARE NOT UNDER
   NWS QUALITY CONTROL.

LAZ040-048-061>063-065-066-069-020200-
SOUTHEAST LOUISIANA

CITY           SKY/WX    TMP DP  RH WIND       PRES   REMARKS
N.O. AUDUBON     N/A     58  58 100 MISG        N/A
N.O. INTL ARPT CLOUDY    59  56  89 E12       30.25F FOG
N.O. LAKEFRONT FOG       58  55  90 E13       30.27F VSB 3/4
SLIDELL        CLOUDY    61  60  97 E6        30.27S FOG
BATON ROUGE    TSTM      62  61  96 E8        30.23R FOG
BOOTHVILLE     FOG       62  62 100 E3        30.26S VSB 3/4
BELLE CHASSE   FOG       58  56  93 E7        30.26R VSB 1/2
BOGALUSA*        N/A     63  60  90 E5        30.29S FOG
GALLIANO*      CLOUDY    68  66  92 MISG      30.25S FOG
NEW ROADS*     NOT AVBL
GONZALES*      NOT AVBL
HAMMOND*       NOT AVBL
HOUMA*         CLOUDY    69  67  92 E8        30.23S FOG
PORT FOURCHON* CLOUDY    66  64  94 E10       30.27S FOG

$$

LAZ041-044-053-054-020200-
SOUTHWEST LOUISIANA

CITY           SKY/WX    TMP DP  RH WIND       PRES   REMARKS
LAKE CHARLES   FOG       63  62  97 CALM      30.20S VSB 1/2
LAFAYETTE      CLOUDY    70  68  93 SW7       30.21R
PATTERSON      CLOUDY    72  66  83 SE10      30.22S
SALT POINT       N/A     68  66  93 SE8       30.20S
NEW IBERIA     HVY RAIN  70  69  97 W12       30.21R FOG
CHENAULT AIRPK NOT AVBL

$$

LAZ027-028-020200-
CENTRAL LOUISIANA

CITY           SKY/WX    TMP DP  RH WIND       PRES   REMARKS
FORT POLK      NOT AVBL
ALEXANDRIA INT CLOUDY    55  55 100 NW5       30.23S
ALEXANDRIA     LGT RAIN  57  54  89 NE5       30.25R

$$

LAZ001-002-020200-
NORTHWEST LOUISIANA

CITY           SKY/WX    TMP DP  RH WIND       PRES   REMARKS
SHREVEPORT     LGT RAIN  44  42  93 N8        30.29S FOG
BARKSDALE AFB  NOT AVBL
DTN SHREVEPORT CLOUDY    43  41  93 NE3       30.30S FOG

$$

LAZ014-016-020200-
NORTHEAST LOUISIANA

CITY           SKY/WX    TMP DP  RH WIND       PRES   REMARKS
MONROE         CLOUDY    43  42  97 N7        30.31R
TALLULAH       FOG       51  50  96 NW5       30.28R VSB 1

$$




USA.gov is the U.S. government's official web portal to all federal, state and local government web resources and services.